User: anonymous   Login
Location: eljas
(40.1958°N, 6.8661°W)
Time: 00:40:42
(UTC+02:00)
Language:

Okean O Rocket - Orbit

View from above orbital plane
View from above orbital plane
View from above satellite
View from above satellite

Ground track
Ground track

The orbit data is extracted from the following two-line orbital elements,

1 25861U 99039B   16212.48499449  .00000031  00000-0  11568-4 0  9994
2 25861  98.0574 176.5635 0016654  41.7528  70.0735 14.78335224918244
Epoch (UTC): 30 July 2016 11:38:23
Eccentricity: 0.0016654
inclination: 98.0574°
perigee height: 623 km
apogee height: 646 km
right ascension of ascending node: 176.5635°
argument of perigee: 41.7528°
revolutions per day: 14.78335224
mean anomaly at epoch: 70.0735°
orbit number at epoch: 91824

The dashed part of the orbit path shows where the satellite is in the earth's shadow,  

DLR